Location: Unspecified
(20.0000°S, 0.0000°E)
Time: 05:00:09
(UTC+00:00)

NUDT-PHONESAT - Pass Details

Date: 23 July 2019
Orbit: 489 x 505 km, 97.4° (Epoch: 21 August)

Event Time Altitude Azimuth Distance (km) Brightness Sun altitude
Rises 05:21:16 0° 34° (NE) 2,578 ? -16.9°
Reaches altitude 10° 05:23:33 10° 47° (NE) 1,705 ? -16.4°
Maximum altitude 05:26:40 26° 105° (ESE) 1,017 ? -15.7°
Drops below altitude 10° 05:29:49 10° 162° (SSE) 1,730 ? -15.0°
Sets 05:32:08 0° 175° (S) 2,624 ? -14.5°
